DW3637 Weather Reports


Display with metric or nautical units.
time (UTC)temp
F
wind
direction
speed
MPH
gust
MPH
rain 1hr
in
rain 24hr
in
rain mn
in
humidity
%
barometer
mb
20260507192516 62 23 3.0 9.0 0.00 0.15 0.02 36 1007.0
20260507191515 63 23 2.0 8.0 0.00 0.16 0.02 34 1006.8
20260507190515 63 45 3.0 7.0 0.00 0.16 0.02 35 1007.0
20260507185518 64 45 3.0 10.0 0.00 0.16 0.02 34 1007.1
20260507184516 63 23 4.0 11.0 0.00 0.16 0.02 35 1007.1
20260507183519 63 45 3.0 9.0 0.00 0.16 0.02 35 1007.0
20260507182515 63 0 4.0 10.0 0.00 0.17 0.02 34 1007.1
20260507181515 63 338 3.0 10.0 0.00 0.17 0.02 35 1007.2
20260507180536 63 270 3.0 10.0 0.00 0.17 0.02 38 1007.4
20260507175518 63 0 3.0 11.0 0.00 0.18 0.02 35 1007.4
20260507174535 63 293 4.0 12.0 0.00 0.18 0.02 34 1007.5
20260507173515 63 338 3.0 8.0 0.00 0.19 0.02 35 1007.3
20260507172515 63 338 3.0 9.0 0.00 0.20 0.02 32 1007.6
20260507171517 63 270 2.0 9.0 0.00 0.20 0.02 36 1007.4
20260507170520 62 315 4.0 10.0 0.00 0.20 0.02 36 1007.5
20260507165518 62 45 2.0 7.0 0.00 0.20 0.02 36 1007.5
20260507164522 61 248 3.0 7.0 0.00 0.20 0.02 37 1007.8
20260507163549 62 23 2.0 7.0 0.00 0.20 0.02 37 1007.9
20260507162537 61 45 3.0 12.0 0.00 0.20 0.02 35 1008.1
20260507161523 61 45 3.0 8.0 0.00 0.20 0.02 38 1008.2
20260507160519 61 23 2.0 7.0 0.00 0.20 0.02 38 1008.5
20260507155519 60 23 2.0 9.0 0.00 0.20 0.02 40 1008.5
20260507154517 60 45 2.0 6.0 0.00 0.20 0.02 39 1008.6
20260507153518 60 90 2.0 6.0 0.00 0.20 0.02 39 1008.6
20260507152517 59 113 2.0 6.0 0.00 0.20 0.02 39 1008.6
20260507151537 60 23 2.0 7.0 0.00 0.20 0.02 38 1008.6
20260507150518 59 68 1.0 4.0 0.00 0.20 0.02 40 1008.6
20260507145517 58 45 2.0 5.0 0.00 0.20 0.02 44 1008.8
20260507144520 58 45 2.0 9.0 0.00 0.20 0.02 40 1008.9
20260507143517 58 23 2.0 8.0 0.00 0.20 0.02 42 1009.0
20260507142538 58 23 1.0 6.0 0.00 0.20 0.02 43 1009.0
20260507141517 57 0 1.0 6.0 0.00 0.20 0.02 48 1009.0
20260507140517 56 338 4.0 11.0 0.00 0.20 0.02 44 1008.9
20260507135517 56 45 2.0 6.0 0.00 0.20 0.02 46 1009.0
20260507134517 55 0 1.0 6.0 0.00 0.20 0.02 47 1008.9
20260507133517 55 23 2.0 8.0 0.00 0.20 0.02 48 1008.9
20260507132517 55 23 2.0 5.0 0.00 0.20 0.02 48 1008.9
20260507131517 54 23 2.0 8.0 0.00 0.20 0.02 52 1008.9
20260507130517 54 23 2.0 5.0 0.00 0.20 0.02 54 1008.9
20260507125517 54 23 1.0 4.0 0.00 0.20 0.02 56 1008.8
20260507124517 53 23 2.0 7.0 0.00 0.20 0.02 58 1008.9
20260507123517 53 45 2.0 5.0 0.00 0.20 0.02 61 1008.8
20260507122537 52 45 2.0 11.0 0.00 0.20 0.02 64 1008.8
20260507121517 52 23 2.0 7.0 0.00 0.20 0.02 66 1008.9
20260507120517 51 0 2.0 8.0 0.00 0.20 0.02 69 1008.9
20260507115517 51 315 4.0 10.0 0.00 0.20 0.02 71 1008.9
20260507114517 50 293 2.0 8.0 0.00 0.20 0.02 76 1008.7
20260507113517 50 293 3.0 8.0 0.00 0.20 0.02 77 1008.7
20260507112537 50 338 3.0 8.0 0.00 0.20 0.02 80 1008.5
20260507111518 49 315 2.0 7.0 0.00 0.20 0.02 81 1008.4
20260507110518 49 315 1.0 5.0 0.00 0.20 0.02 83 1008.4
20260507105517 49 270 1.0 5.0 0.00 0.20 0.02 84 1008.3
20260507104517 49 338 1.0 4.0 0.00 0.20 0.02 84 1008.1
20260507103518 49 338 1.0 4.0 0.00 0.20 0.02 85 1007.8
20260507102517 49 45 1.0 4.0 0.00 0.20 0.02 85 1007.6
20260507101517 49 23 1.0 5.0 0.00 0.20 0.02 85 1007.5
20260507100517 49 23 2.0 5.0 0.00 0.20 0.02 86 1007.6
20260507095517 49 315 2.0 5.0 0.00 0.20 0.02 87 1007.6
20260507094517 49 0.0 2.0 0.00 0.20 0.02 87 1007.4
20260507093517 49 0.0 2.0 0.00 0.20 0.02 88 1007.4
20260507092557 49 338 1.0 6.0 0.00 0.20 0.02 88 1007.4
20260507091517 49 0.0 2.0 0.00 0.20 0.02 89 1007.6
20260507090517 49 0 1.0 4.0 0.00 0.20 0.02 90 1007.3
20260507085517 49 0.0 2.0 0.00 0.20 0.02 91 1007.5
20260507084537 50 270 1.0 4.0 0.00 0.20 0.02 92 1007.5
20260507083516 50 0.0 5.0 0.00 0.20 0.02 92 1007.9
20260507082517 50 0.0 0.0 0.00 0.20 0.02 92 1007.7
20260507081517 50 0.0 1.0 0.00 0.20 0.02 92 1008.0
20260507080517 50 0.0 2.0 0.00 0.20 0.02 92 1007.9
20260507075517 50 0.0 1.0 0.01 0.20 0.02 92 1007.6
20260507074517 50 0.0 1.0 0.02 0.20 0.02 92 1007.6
20260507073537 51 0.0 0.0 0.02 0.20 0.02 91 1007.3
20260507072517 51 0.0 0.0 0.02 0.20 0.02 91 1007.5
20260507071517 51 0.0 0.0 0.02 0.20 0.02 91 1007.6
20260507070536 51 0.0 2.0 0.02 0.20 0.02 90 1007.1
20260507065517 51 0.0 1.0 0.01 0.19 0.01 90 1007.2
20260507064517 51 0.0 3.0 0.00 0.18 0.00 90 1007.6
20260507063516 52 0.0 1.0 0.00 0.18 0.00 90 1007.3
20260507062516 52 0.0 2.0 0.00 0.18 0.00 90 1007.0
20260507061557 52 0.0 2.0 0.00 0.18 0.00 90 1006.7
20260507060516 52 0.0 2.0 0.00 0.18 0.00 90 1006.6
20260507055517 52 0.0 1.0 0.00 0.18 0.00 90 1006.7
20260507054516 52 0.0 4.0 0.00 0.18 0.00 91 1007.2
20260507053516 52 0.0 1.0 0.00 0.18 0.00 90 1007.3
20260507052516 52 0.0 1.0 0.00 0.18 0.00 91 1007.5
20260507051517 52 0.0 1.0 0.00 0.18 0.00 91 1007.2
20260507050516 53 0.0 1.0 0.00 0.18 0.00 91 1007.4
20260507045516 53 0.0 2.0 0.00 0.18 0.00 91 1007.9
20260507044516 53 0.0 0.0 0.00 0.18 0.00 90 1007.7
20260507043520 53 0.0 1.0 0.00 0.18 0.00 90 1007.6
20260507042516 53 0.0 0.0 0.00 0.18 0.00 90 1007.5
20260507041517 53 0.0 0.0 0.00 0.18 0.00 90 1007.4
20260507040516 53 0.0 0.0 0.00 0.18 0.00 90 1007.5
20260507035517 53 0.0 0.0 0.01 0.18 0.18 90 1007.3
20260507034516 53 0.0 1.0 0.01 0.18 0.18 90 1007.3
20260507033517 53 0.0 2.0 0.01 0.18 0.18 91 1007.3
20260507032517 53 0.0 3.0 0.01 0.18 0.18 91 1007.4
20260507031537 54 315 1.0 3.0 0.02 0.18 0.18 92 1007.4
20260507030517 54 0.0 1.0 0.02 0.18 0.18 92 1007.2
20260507025537 55 0.0 2.0 0.01 0.17 0.17 92 1007.2
20260507024516 55 0.0 4.0 0.01 0.17 0.17 93 1007.1
20260507023517 56 0.0 1.0 0.02 0.17 0.17 93 1007.0
20260507022516 56 0.0 1.0 0.02 0.17 0.17 93 1007.0
20260507021517 56 0.0 2.0 0.01 0.16 0.16 93 1006.8
20260507020517 56 0.0 2.0 0.02 0.16 0.16 93 1006.7
20260507015516 57 315 1.0 3.0 0.05 0.16 0.16 93 1006.4
20260507014516 57 315 3.0 7.0 0.05 0.16 0.16 94 1006.5
20260507013517 57 0.0 1.0 0.04 0.15 0.15 95 1006.7
20260507012516 57 0.0 0.0 0.04 0.15 0.15 94 1006.4
20260507011516 58 23 1.0 5.0 0.04 0.15 0.15 94 1006.0
20260507010517 59 315 2.0 6.0 0.03 0.14 0.14 93 1006.2
20260507005516 59 248 3.0 10.0 0.00 0.11 0.11 95 1005.4
20260507004516 59 248 2.0 8.0 0.00 0.11 0.11 95 1005.3
20260507003516 59 248 3.0 8.0 0.00 0.11 0.11 95 1005.0
20260507002516 59 248 2.0 5.0 0.00 0.11 0.11 95 1005.2
20260507001516 60 248 3.0 8.0 0.00 0.11 0.11 95 1005.2
20260507000516 60 248 2.0 7.0 0.00 0.11 0.11 95 1005.2
20260506235516 59 248 3.0 7.0 0.00 0.11 0.11 95 1005.2
20260506234516 59 248 3.0 7.0 0.00 0.11 0.11 95 1005.0
20260506233516 59 248 2.0 6.0 0.00 0.11 0.11 95 1005.0
20260506232516 59 248 2.0 7.0 0.00 0.11 0.11 95 1004.9
20260506231516 59 248 3.0 7.0 0.00 0.11 0.11 95 1004.9
20260506230516 59 248 3.0 8.0 0.01 0.11 0.11 95 1004.8
20260506225516 59 225 2.0 5.0 0.01 0.11 0.11 95 1004.8
20260506224516 60 248 3.0 6.0 0.02 0.11 0.11 95 1004.6
20260506223516 60 248 2.0 6.0 0.02 0.11 0.11 95 1004.7
20260506222536 60 225 3.0 8.0 0.02 0.11 0.11 95 1004.7
20260506221516 60 225 2.0 5.0 0.02 0.11 0.11 95 1004.7
20260506220516 60 225 1.0 5.0 0.01 0.10 0.10 94 1004.7
20260506215516 60 225 3.0 8.0 0.02 0.10 0.10 94 1004.8
20260506214536 60 225 3.0 5.0 0.01 0.09 0.09 94 1004.7
20260506213524 60 248 1.0 4.0 0.01 0.09 0.09 94 1004.8
20260506212516 60 248 4.0 10.0 0.01 0.09 0.09 94 1004.8
20260506211519 60 225 3.0 11.0 0.02 0.09 0.09 94 1004.8
20260506210516 60 248 4.0 12.0 0.03 0.09 0.09 94 1004.7
20260506205536 60 248 3.0 9.0 0.02 0.08 0.08 94 1004.9
20260506204516 60 248 2.0 6.0 0.03 0.08 0.08 94 1004.9
20260506203520 60 248 2.0 6.0 0.03 0.08 0.08 94 1005.1
20260506202600 60 225 1.0 3.0 0.03 0.08 0.08 93 1005.2
20260506201520 60 248 2.0 9.0 0.03 0.07 0.07 93 1005.2
20260506200516 60 225 3.0 7.0 0.02 0.06 0.06 92 1005.3
20260506195517 60 248 3.0 8.0 0.02 0.06 0.06 92 1005.4
20260506194518 60 248 4.0 8.0 0.01 0.05 0.05 92 1005.5
20260506193516 60 248 3.0 11.0 0.01 0.05 0.05 91 1005.7